Lid_Strength_Index
3 3 3 2 2 2 2 2 2 1 1 1 1 0 0 0 1 2 5 3 4 1 2 7 6 7 6 7 8 9 9 10 10 10 10 9 8 9 8 8 8 8 7 3 3
3 3 3 3 3 2 3 2 2 2 1 1 1 0 1 0 3 5 1 -2 -0 1 8 8 9 8 8 8 8 9 9 9 9 8 8 9 8 8 8 8 9 7 3 2 2
3 3 3 3 3 2 3 3 2 2 1 1 1 1 1 1 6 5 -2 -3 -1 3 6 7 7 8 9 9 9 10 10 9 9 9 9 8 9 9 8 9 7 6 4 5 3
4 4 4 4 3 3 3 3 3 2 2 1 1 1 0 3 10 5 -3 -2 -2 5 6 6 8 9 9 10 10 10 9 9 9 8 9 8 8 9 8 7 6 4 4 5 4
4 4 4 4 4 3 3 3 3 3 2 2 1 1 3 8 7 3 -3 -2 2 5 7 7 8 8 9 9 10 9 9 9 8 8 8 8 8 8 8 7 6 6 6 5 4
4 4 4 4 4 3 3 3 3 3 3 2 1 1 6 9 4 4 3 4 4 5 7 6 7 8 9 9 9 9 9 9 8 8 8 8 8 8 7 7 7 6 6 5 4
3 3 3 3 3 3 3 3 3 3 2 1 1 2 7 8 4 4 5 5 5 5 6 6 6 7 8 9 8 9 9 9 9 8 8 8 9 9 7 7 7 7 6 5 4
3 3 3 3 2 3 3 3 3 3 2 1 0 4 8 6 4 4 5 5 5 5 6 6 6 7 8 8 9 10 9 10 9 9 9 8 10 8 6 7 7 7 7 6 5
3 3 3 3 2 2 2 2 2 2 2 1 3 6 9 4 6 4 4 6 5 5 5 6 6 8 8 10 11 11 12 12 11 9 9 9 10 7 7 7 7 7 7 6 5
3 3 3 3 2 2 3 2 1 0 1 2 4 8 7 8 5 5 5 5 6 6 7 7 8 8 10 11 13 12 12 12 11 9 10 10 10 8 8 8 7 7 7 6 5
3 3 3 3 3 2 3 3 4 4 4 6 6 8 8 6 4 6 5 6 6 7 9 9 10 11 10 10 11 11 12 12 11 9 10 10 10 8 8 8 8 8 7 6 5
3 3 3 3 3 2 3 4 5 5 7 5 5 6 5 5 8 6 5 7 8 10 10 10 11 9 9 10 10 10 11 11 10 9 10 9 10 8 8 8 7 7 7 6 5
3 3 3 3 3 4 4 5 4 4 7 7 6 6 6 5 7 7 6 7 9 10 10 11 10 9 10 10 11 10 11 11 10 10 9 10 10 9 7 7 7 6 6 6 6
4 4 4 4 4 6 5 5 4 4 9 9 6 6 5 5 7 4 5 7 9 10 10 10 9 10 10 11 10 12 9 10 10 11 12 10 13 10 8 8 7 6 6 7 6
4 4 4 4 5 6 6 6 3 4 15 8 7 4 5 7 6 6 5 6 9 10 10 10 10 10 11 10 10 11 10 10 10 11 11 12 12 11 10 9 8 7 6 7 6
4 4 4 5 6 6 6 5 4 10 15 9 7 8 7 7 7 6 6 5 6 8 9 9 9 9 9 9 9 9 10 10 11 11 14 12 12 12 11 10 8 7 6 5 5
4 4 5 5 9 6 6 5 10 14 9 10 10 8 8 9 8 8 8 8 9 11 11 9 10 9 9 10 9 9 10 13 14 14 15 12 13 11 9 9 8 7 6 5 5
5 6 7 5 6 7 4 7 14 12 10 8 9 9 10 9 9 8 9 9 8 9 10 11 12 9 8 9 10 10 10 13 17 15 14 12 14 11 7 7 6 6 6 6 6
6 8 7 7 6 5 5 12 13 11 9 10 9 11 10 9 9 9 9 9 8 8 10 11 11 8 7 8 7 10 11 9 12 13 14 12 10 9 7 7 7 6 7 7 6
8 10 9 6 6 4 7 11 10 10 10 9 12 10 12 11 11 10 10 8 9 7 7 9 12 8 7 7 7 8 7 12 11 15 16 13 13 12 9 8 7 7 6 6 5
9 10 8 6 6 8 12 11 11 9 10 11 11 11 11 12 12 11 10 9 7 8 7 9 10 10 8 9 9 9 9 10 10 11 14 15 12 8 8 7 7 6 5 5 4
10 12 8 7 10 11 13 12 11 11 10 11 10 11 13 13 13 12 11 10 9 7 10 8 11 13 11 8 8 8 9 9 15 13 13 12 12 6 6 6 6 6 5 4 4
12 12 7 7 14 14 13 13 11 12 12 13 12 12 12 13 14 12 11 10 10 9 10 8 11 15 12 10 8 9 9 9 10 10 13 15 12 6 6 6 6 6 5 4 4
11 13 11 10 11 14 15 15 14 12 12 11 12 12 13 14 12 13 13 11 10 10 8 8 10 12 15 12 10 12 11 9 10 14 13 11 10 8 7 7 6 6 5 4 4
11 13 13 15 14 14 14 14 15 14 11 11 13 13 14 15 15 14 13 12 11 9 9 10 14 12 12 11 10 11 11 11 12 11 13 11 10 8 7 6 6 5 5 5 5
12 13 12 13 13 14 14 14 14 13 12 13 13 12 13 15 14 15 13 13 14 11 10 9 13 12 14 12 11 13 12 12 11 11 10 10 10 6 5 5 5 5 5 5 5
10 10 11 13 13 13 13 12 12 11 11 10 11 12 13 12 11 10 10 10 11 12 12 12 13 14 17 13 14 16 14 12 11 10 10 12 9 6 6 6 5 5 5 5 4